AAL3115 KPHX-KCID

Flight info

Callsign AAL3115
Flight time 2h 28m
Altitude 37000
Route MRBIL1 JARPA RSK OVR CID
Aircraft A319/M-SDE3FGHIRWY/LB1

Departure

Time 2026-05-04 00:42
Airport Phoenix Sky Harbor International Airport (KPHX)

Arrival

Time 2026-05-04 03:11
Airport The Eastern Iowa Airport (KCID)
Time Latitude Longitude Altitude Speed Heading
2026-05-04 00:12 33.43752 -111.99727 1124 ft 0 kts 90°
2026-05-04 00:31 33.43752 -111.99754 1118 ft 4 kts 81°
2026-05-04 00:31 33.43745 -111.99778 1124 ft 4 kts 19°
2026-05-04 00:32 33.43722 -111.99780 1117 ft 4 kts
2026-05-04 00:32 33.43699 -111.99780 1121 ft 1 kts
2026-05-04 00:32 33.43698 -111.99780 1124 ft 0 kts
2026-05-04 00:35 33.43703 -111.99780 1121 ft 2 kts
2026-05-04 00:35 33.43730 -111.99781 1119 ft 5 kts 360°
2026-05-04 00:35 33.43760 -111.99780 1116 ft 4 kts
2026-05-04 00:35 33.43799 -111.99780 1120 ft 6 kts 360°
2026-05-04 00:36 33.43842 -111.99780 1124 ft 3 kts 359°
2026-05-04 00:36 33.43847 -111.99780 1124 ft 4 kts
2026-05-04 00:37 33.43882 -111.99776 1120 ft 5 kts 17°
2026-05-04 00:37 33.43905 -111.99734 1124 ft 9 kts 85°
2026-05-04 00:37 33.43902 -111.99623 1124 ft 17 kts 89°
2026-05-04 00:37 33.43903 -111.99494 1124 ft 14 kts 90°
2026-05-04 00:38 33.43903 -111.99388 1124 ft 12 kts 90°
2026-05-04 00:38 33.43901 -111.99272 1118 ft 16 kts 95°
2026-05-04 00:38 33.43798 -111.99226 1124 ft 18 kts 181°
2026-05-04 00:38 33.43669 -111.99227 1124 ft 18 kts 179°
2026-05-04 00:39 33.43560 -111.99225 1121 ft 15 kts 180°
2026-05-04 00:39 33.43465 -111.99227 1124 ft 13 kts 185°
2026-05-04 00:39 33.43372 -111.99247 1118 ft 14 kts 179°
2026-05-04 00:39 33.43280 -111.99245 1124 ft 13 kts 179°
2026-05-04 00:40 33.43218 -111.99253 1123 ft 8 kts 204°
2026-05-04 00:40 33.43196 -111.99276 1124 ft 0 kts 225°
2026-05-04 00:41 33.43195 -111.99277 1124 ft 1 kts 225°
2026-05-04 00:41 33.43178 -111.99297 1118 ft 8 kts 225°
2026-05-04 00:41 33.43117 -111.99376 1123 ft 19 kts 239°
2026-05-04 00:42 33.43104 -111.99717 1122 ft 73 kts 270°
2026-05-04 00:42 33.43102 -112.00572 1122 ft 130 kts 270°
2026-05-04 00:42 33.43102 -112.01849 1137 ft 174 kts 270°
2026-05-04 00:42 33.43146 -112.03265 1781 ft 164 kts 268°
2026-05-04 00:43 33.43191 -112.04629 2408 ft 164 kts 268°
2026-05-04 00:43 33.43222 -112.05996 2973 ft 168 kts 270°
2026-05-04 00:43 33.43256 -112.07480 3223 ft 189 kts 269°
2026-05-04 00:43 33.43285 -112.09152 3416 ft 214 kts 267°
2026-05-04 00:44 33.43314 -112.11021 3716 ft 235 kts 268°
2026-05-04 00:44 33.43359 -112.13026 4283 ft 245 kts 268°
2026-05-04 00:44 33.43412 -112.15088 5014 ft 250 kts 268°
2026-05-04 00:44 33.43646 -112.17169 5783 ft 260 kts 287°
2026-05-04 00:45 33.44738 -112.18926 6524 ft 272 kts 321°
2026-05-04 00:45 33.46530 -112.19719 7242 ft 283 kts 353°
2026-05-04 00:45 33.48492 -112.19771 7973 ft 287 kts 359°
2026-05-04 00:45 33.50504 -112.19731 8697 ft 290 kts 360°
2026-05-04 00:46 33.52545 -112.19648 9391 ft 295 kts
2026-05-04 00:46 33.54606 -112.19169 9818 ft 312 kts 13°
2026-05-04 00:46 33.56766 -112.18519 10191 ft 329 kts 13°
2026-05-04 00:46 33.59066 -112.17817 10433 ft 351 kts 15°
2026-05-04 00:47 33.61348 -112.16646 10960 ft 361 kts 31°
2026-05-04 00:47 33.63341 -112.14810 11651 ft 364 kts 46°
2026-05-04 00:47 33.65089 -112.12601 12424 ft 366 kts 48°
2026-05-04 00:47 33.66839 -112.10373 13227 ft 368 kts 47°
2026-05-04 00:48 33.68610 -112.08121 13922 ft 372 kts 47°
2026-05-04 00:48 33.70378 -112.05872 14592 ft 377 kts 47°
2026-05-04 00:48 33.72189 -112.03563 15263 ft 382 kts 47°
2026-05-04 00:48 33.74016 -112.01229 15922 ft 385 kts 46°
2026-05-04 00:49 33.75766 -111.98764 16547 ft 390 kts 53°
2026-05-04 00:49 33.77423 -111.96158 17173 ft 395 kts 52°
2026-05-04 00:49 33.79097 -111.93518 17786 ft 399 kts 52°
2026-05-04 00:49 33.80786 -111.90851 18411 ft 403 kts 52°
2026-05-04 00:50 33.82500 -111.88148 18985 ft 408 kts 52°
2026-05-04 00:50 33.84212 -111.85451 19536 ft 413 kts 51°
2026-05-04 00:50 33.85970 -111.82676 20064 ft 419 kts 51°
2026-05-04 00:50 33.87741 -111.79869 20609 ft 423 kts 51°
2026-05-04 00:51 33.89537 -111.77019 21113 ft 429 kts 51°
2026-05-04 00:51 33.91352 -111.74141 21609 ft 434 kts 50°
2026-05-04 00:51 33.93186 -111.71233 22133 ft 438 kts 50°
2026-05-04 00:51 33.95012 -111.68335 22599 ft 442 kts 50°
2026-05-04 00:52 33.96884 -111.65362 23075 ft 448 kts 50°
2026-05-04 00:52 33.98807 -111.62388 23532 ft 450 kts 45°
2026-05-04 00:52 34.01016 -111.59724 23990 ft 449 kts 35°
2026-05-04 00:52 34.03520 -111.57500 24441 ft 446 kts 26°
2026-05-04 00:53 34.06157 -111.55489 24861 ft 449 kts 26°
2026-05-04 00:53 34.08808 -111.53466 25323 ft 452 kts 26°
2026-05-04 00:53 34.11474 -111.51425 25786 ft 456 kts 26°
2026-05-04 00:53 34.14169 -111.49359 26269 ft 458 kts 26°
2026-05-04 00:54 34.16863 -111.47290 26662 ft 461 kts 26°
2026-05-04 00:54 34.19573 -111.45202 27028 ft 463 kts 25°
2026-05-04 00:54 34.22300 -111.43097 27388 ft 466 kts 26°
2026-05-04 00:54 34.25021 -111.40996 27768 ft 469 kts 25°
2026-05-04 00:55 34.27782 -111.38862 28165 ft 472 kts 25°
2026-05-04 00:55 34.30558 -111.36715 28533 ft 474 kts 25°
2026-05-04 00:55 34.33350 -111.34556 28889 ft 477 kts 25°
2026-05-04 00:55 34.36127 -111.32406 29251 ft 479 kts 25°
2026-05-04 00:56 34.38943 -111.30226 29599 ft 482 kts 25°
2026-05-04 00:56 34.41774 -111.28034 29944 ft 484 kts 25°
2026-05-04 00:56 34.44621 -111.25826 30273 ft 486 kts 24°
2026-05-04 00:56 34.47480 -111.23608 30562 ft 489 kts 24°
2026-05-04 00:57 34.50355 -111.21380 30843 ft 492 kts 24°
2026-05-04 00:57 34.53254 -111.19132 31129 ft 495 kts 24°
2026-05-04 00:57 34.56131 -111.16895 31414 ft 498 kts 24°
2026-05-04 00:57 34.59053 -111.14614 31668 ft 501 kts 24°
2026-05-04 00:58 34.61950 -111.12221 31928 ft 510 kts 30°
2026-05-04 00:58 34.64653 -111.09333 32210 ft 520 kts 38°
2026-05-04 00:58 34.67208 -111.06226 32568 ft 520 kts 37°
2026-05-04 00:58 34.69772 -111.03122 32927 ft 519 kts 37°
2026-05-04 00:59 34.72332 -111.00027 33282 ft 519 kts 37°
2026-05-04 00:59 34.74893 -110.96930 33632 ft 519 kts 37°
2026-05-04 00:59 34.77451 -110.93835 33952 ft 519 kts 36°
2026-05-04 00:59 34.80011 -110.90732 34295 ft 519 kts 36°
2026-05-04 01:00 34.82531 -110.87672 34628 ft 519 kts 36°
2026-05-04 01:00 34.85092 -110.84563 34946 ft 519 kts 36°
2026-05-04 01:00 34.87644 -110.81460 35272 ft 518 kts 36°
2026-05-04 01:00 34.90198 -110.78346 35584 ft 518 kts 37°
2026-05-04 01:01 34.92746 -110.75236 35836 ft 518 kts 37°
2026-05-04 01:01 34.95296 -110.72123 36104 ft 518 kts 37°
2026-05-04 01:01 34.97849 -110.69003 36376 ft 518 kts 36°
2026-05-04 01:01 35.00356 -110.65938 36643 ft 518 kts 36°
2026-05-04 01:02 35.02904 -110.62823 36890 ft 517 kts 36°
2026-05-04 01:02 35.07955 -110.56635 37000 ft 508 kts 36°
2026-05-04 01:03 35.12916 -110.50545 37009 ft 504 kts 36°
2026-05-04 01:03 35.17853 -110.44477 37007 ft 503 kts 36°
2026-05-04 01:04 35.22793 -110.38408 37012 ft 503 kts 36°
2026-05-04 01:04 35.27724 -110.32319 37020 ft 503 kts 37°
2026-05-04 01:05 35.32620 -110.26262 37026 ft 503 kts 37°
2026-05-04 01:05 35.37546 -110.20158 37029 ft 503 kts 36°
2026-05-04 01:06 35.42471 -110.14059 37032 ft 503 kts 37°
2026-05-04 01:06 35.46558 -110.08979 37035 ft 503 kts 37°
2026-05-04 01:07 35.51467 -110.02866 37040 ft 503 kts 37°
2026-05-04 01:07 35.56379 -109.96735 37053 ft 503 kts 37°
2026-05-04 01:08 35.61291 -109.90592 37064 ft 503 kts 37°
2026-05-04 01:08 35.66161 -109.84505 37071 ft 503 kts 37°
2026-05-04 01:09 35.71009 -109.78271 37069 ft 508 kts 43°
2026-05-04 01:09 35.75373 -109.71383 37072 ft 510 kts 45°
2026-05-04 01:10 35.79727 -109.64468 37070 ft 510 kts 45°
2026-05-04 01:10 35.84049 -109.57602 37073 ft 509 kts 44°
2026-05-04 01:11 35.88395 -109.50685 37084 ft 510 kts 45°
2026-05-04 01:11 35.92731 -109.43756 37102 ft 510 kts 45°
2026-05-04 01:12 35.97065 -109.36803 37096 ft 510 kts 45°
2026-05-04 01:12 36.01373 -109.29894 37101 ft 510 kts 45°
2026-05-04 01:13 36.05695 -109.22956 37112 ft 508 kts 45°
2026-05-04 01:13 36.10002 -109.16028 37095 ft 507 kts 45°
2026-05-04 01:14 36.14294 -109.09098 37090 ft 506 kts 45°
2026-05-04 01:14 36.18551 -109.02221 37080 ft 505 kts 45°
2026-05-04 01:15 36.22829 -108.95303 37081 ft 505 kts 45°
2026-05-04 01:15 36.27067 -108.88414 37080 ft 504 kts 45°
2026-05-04 01:16 36.31321 -108.81501 37076 ft 504 kts 45°
2026-05-04 01:16 36.35567 -108.74593 37071 ft 503 kts 45°
2026-05-04 01:17 36.39802 -108.67674 37065 ft 503 kts 45°
2026-05-04 01:17 36.44024 -108.60743 37056 ft 502 kts 45°
2026-05-04 01:18 36.48242 -108.53819 37043 ft 501 kts 45°
2026-05-04 01:18 36.52429 -108.46953 37035 ft 501 kts 45°
2026-05-04 01:19 36.56631 -108.40039 37028 ft 500 kts 45°
2026-05-04 01:19 36.60824 -108.33126 37023 ft 500 kts 45°
2026-05-04 01:20 36.65007 -108.26215 37014 ft 503 kts 45°
2026-05-04 01:20 36.69240 -108.19229 37010 ft 511 kts 45°
2026-05-04 01:21 36.73520 -108.12121 37009 ft 512 kts 46°
2026-05-04 01:21 36.77224 -108.04400 37019 ft 522 kts 56°
2026-05-04 01:22 36.80665 -107.96442 37021 ft 521 kts 55°
2026-05-04 01:22 36.84116 -107.88487 37027 ft 520 kts 55°
2026-05-04 01:23 36.87537 -107.80589 37033 ft 519 kts 56°
2026-05-04 01:23 36.90967 -107.72630 37045 ft 519 kts 56°
2026-05-04 01:24 36.94382 -107.64674 37055 ft 519 kts 56°
2026-05-04 01:24 36.97762 -107.56772 37060 ft 518 kts 56°
2026-05-04 01:25 37.01167 -107.48816 37065 ft 517 kts 56°
2026-05-04 01:25 37.04555 -107.40873 37070 ft 517 kts 56°
2026-05-04 01:26 37.07933 -107.32920 37075 ft 517 kts 56°
2026-05-04 01:26 37.11294 -107.24998 37091 ft 516 kts 56°
2026-05-04 01:27 37.14668 -107.17044 37094 ft 516 kts 56°
2026-05-04 01:27 37.18011 -107.09123 37109 ft 516 kts 56°
2026-05-04 01:28 37.21366 -107.01143 37118 ft 516 kts 56°
2026-05-04 01:28 37.24709 -106.93172 37128 ft 516 kts 56°
2026-05-04 01:29 37.28052 -106.85200 37179 ft 516 kts 56°
2026-05-04 01:29 37.31393 -106.77219 37254 ft 516 kts 56°
2026-05-04 01:30 37.34731 -106.69216 37271 ft 516 kts 56°
2026-05-04 01:30 37.38038 -106.61264 37276 ft 516 kts 56°
2026-05-04 01:31 37.41363 -106.53248 37277 ft 517 kts 57°
2026-05-04 01:31 37.44684 -106.45227 37266 ft 516 kts 56°
2026-05-04 01:32 37.47989 -106.37209 37211 ft 515 kts 57°
2026-05-04 01:32 37.51254 -106.29259 37198 ft 514 kts 56°
2026-05-04 01:33 37.54549 -106.21256 37178 ft 514 kts 57°
2026-05-04 01:33 37.57834 -106.13250 37166 ft 513 kts 57°
2026-05-04 01:34 37.61111 -106.05238 37153 ft 513 kts 57°
2026-05-04 01:34 37.64358 -105.97288 37145 ft 513 kts 57°
2026-05-04 01:35 37.67610 -105.89282 37138 ft 512 kts 57°
2026-05-04 01:35 37.70851 -105.81263 37133 ft 512 kts 57°
2026-05-04 01:36 37.74094 -105.73238 37135 ft 512 kts 57°
2026-05-04 01:36 37.77341 -105.65215 37140 ft 512 kts 57°
2026-05-04 01:37 37.80576 -105.57190 37149 ft 512 kts 57°
2026-05-04 01:37 37.83784 -105.49180 37152 ft 512 kts 57°
2026-05-04 01:38 37.87009 -105.41128 37154 ft 512 kts 57°
2026-05-04 01:38 37.90230 -105.33078 37155 ft 512 kts 57°
2026-05-04 01:39 37.93422 -105.25059 37150 ft 512 kts 57°
2026-05-04 01:39 37.96624 -105.16995 37145 ft 512 kts 57°
2026-05-04 01:40 37.99816 -105.08936 37138 ft 511 kts 57°
2026-05-04 01:40 38.02984 -105.00926 37099 ft 508 kts 58°
2026-05-04 01:41 38.06118 -104.92966 37041 ft 502 kts 58°
2026-05-04 01:41 38.09238 -104.85038 37021 ft 501 kts 58°
2026-05-04 01:42 38.12351 -104.77109 37006 ft 500 kts 58°
2026-05-04 01:42 38.15425 -104.69238 36933 ft 498 kts 58°
2026-05-04 01:43 38.18501 -104.61335 36921 ft 497 kts 58°
2026-05-04 01:43 38.21576 -104.53450 36916 ft 498 kts 58°
2026-05-04 01:44 38.24649 -104.45552 36917 ft 497 kts 58°
2026-05-04 01:44 38.27694 -104.37702 36908 ft 497 kts 58°
2026-05-04 01:45 38.30755 -104.29772 36916 ft 497 kts 58°
2026-05-04 01:45 38.35299 -104.17975 36905 ft 497 kts 58°
2026-05-04 01:46 38.38332 -104.10067 36910 ft 497 kts 58°
2026-05-04 01:46 38.41354 -104.02136 36911 ft 496 kts 58°
2026-05-04 01:47 38.44381 -103.94231 36913 ft 496 kts 58°
2026-05-04 01:47 38.47413 -103.86330 36925 ft 496 kts 58°
2026-05-04 01:48 38.50409 -103.78440 36932 ft 496 kts 59°
2026-05-04 01:48 38.53403 -103.70502 36935 ft 496 kts 59°
2026-05-04 01:49 38.56392 -103.62553 36936 ft 495 kts 59°
2026-05-04 01:49 38.59366 -103.54683 36926 ft 495 kts 59°
2026-05-04 01:50 38.62365 -103.46723 36916 ft 495 kts 59°
2026-05-04 01:50 38.65321 -103.38825 36912 ft 495 kts 59°
2026-05-04 01:51 38.68295 -103.30868 36915 ft 494 kts 59°
2026-05-04 01:51 38.71254 -103.22937 36922 ft 494 kts 59°
2026-05-04 01:52 38.74200 -103.14990 36921 ft 493 kts 59°
2026-05-04 01:52 38.77123 -103.07089 36916 ft 493 kts 59°
2026-05-04 01:53 38.80065 -102.99161 36919 ft 492 kts 59°
2026-05-04 01:53 38.82999 -102.91218 36906 ft 491 kts 60°
2026-05-04 01:54 38.85911 -102.83284 36914 ft 491 kts 60°
2026-05-04 01:54 38.88823 -102.75352 36913 ft 491 kts 60°
2026-05-04 01:55 38.91717 -102.67472 36912 ft 491 kts 60°
2026-05-04 01:55 38.94618 -102.59537 36902 ft 491 kts 60°
2026-05-04 01:56 38.97497 -102.51585 36910 ft 491 kts 60°
2026-05-04 01:56 39.00381 -102.43637 36908 ft 490 kts 60°
2026-05-04 01:57 39.02787 -102.37031 36905 ft 490 kts 60°
2026-05-04 01:57 39.05664 -102.29074 36902 ft 490 kts 60°
2026-05-04 01:58 39.08536 -102.21109 36897 ft 490 kts 60°
2026-05-04 01:58 39.11405 -102.13151 36898 ft 490 kts 60°
2026-05-04 01:59 39.14258 -102.05168 36904 ft 490 kts 60°
2026-05-04 01:59 39.17092 -101.97236 36902 ft 490 kts 60°
2026-05-04 02:00 39.19940 -101.89271 36893 ft 489 kts 60°
2026-05-04 02:00 39.22778 -101.81297 36897 ft 489 kts 60°
2026-05-04 02:01 39.25599 -101.73311 36886 ft 488 kts 60°
2026-05-04 02:01 39.28421 -101.65330 36882 ft 489 kts 60°
2026-05-04 02:02 39.31239 -101.57342 36875 ft 489 kts 60°
2026-05-04 02:02 39.34033 -101.49393 36877 ft 489 kts 61°
2026-05-04 02:03 39.36833 -101.41382 36878 ft 489 kts 60°
2026-05-04 02:03 39.39636 -101.33376 36871 ft 489 kts 61°
2026-05-04 02:04 39.42431 -101.25347 36869 ft 489 kts 61°
2026-05-04 02:04 39.45227 -101.17318 36871 ft 489 kts 60°
2026-05-04 02:05 39.48023 -101.09289 36870 ft 489 kts 61°
2026-05-04 02:05 39.50782 -101.01298 36868 ft 489 kts 61°
2026-05-04 02:06 39.53548 -100.93247 36866 ft 490 kts 61°
2026-05-04 02:06 39.56329 -100.85184 36868 ft 490 kts 61°
2026-05-04 02:07 39.59104 -100.77103 36870 ft 490 kts 61°
2026-05-04 02:07 39.61852 -100.69067 36870 ft 490 kts 61°
2026-05-04 02:08 39.64607 -100.60972 36867 ft 490 kts 61°
2026-05-04 02:08 39.67356 -100.52880 36863 ft 490 kts 61°
2026-05-04 02:09 39.70112 -100.44764 36856 ft 491 kts 61°
2026-05-04 02:09 39.72863 -100.36647 36850 ft 491 kts 61°
2026-05-04 02:10 39.75585 -100.28568 36845 ft 491 kts 62°
2026-05-04 02:10 39.78315 -100.20426 36843 ft 491 kts 62°
2026-05-04 02:11 39.81045 -100.12286 36845 ft 491 kts 61°
2026-05-04 02:11 39.83783 -100.04130 36842 ft 491 kts 62°
2026-05-04 02:12 39.86500 -99.95969 36845 ft 491 kts 62°
2026-05-04 02:12 39.89199 -99.87842 36845 ft 492 kts 62°
2026-05-04 02:13 39.91915 -99.79654 36848 ft 492 kts 62°
2026-05-04 02:13 39.94615 -99.71458 36848 ft 492 kts 62°
2026-05-04 02:14 39.97311 -99.63260 36849 ft 492 kts 62°
2026-05-04 02:14 40.00011 -99.55059 36850 ft 492 kts 62°
2026-05-04 02:15 40.02703 -99.46855 36850 ft 491 kts 62°
2026-05-04 02:15 40.05372 -99.38687 36850 ft 491 kts 62°
2026-05-04 02:16 40.08044 -99.30473 36847 ft 491 kts 62°
2026-05-04 02:16 40.10711 -99.22254 36853 ft 492 kts 62°
2026-05-04 02:17 40.13378 -99.14020 36854 ft 492 kts 62°
2026-05-04 02:17 40.16035 -99.05778 36856 ft 492 kts 61°
2026-05-04 02:18 40.18692 -98.97535 36855 ft 491 kts 61°
2026-05-04 02:18 40.21339 -98.89285 36855 ft 492 kts 61°
2026-05-04 02:19 40.23966 -98.81071 36857 ft 492 kts 61°
2026-05-04 02:19 40.26603 -98.72804 36857 ft 492 kts 62°
2026-05-04 02:20 40.29238 -98.64498 36857 ft 492 kts 61°
2026-05-04 02:20 40.31846 -98.56257 36858 ft 492 kts 61°
2026-05-04 02:21 40.34469 -98.47967 36861 ft 492 kts 61°
2026-05-04 02:21 40.37095 -98.39669 36862 ft 493 kts 61°
2026-05-04 02:22 40.39710 -98.31349 36864 ft 493 kts 62°
2026-05-04 02:22 40.42310 -98.23025 36866 ft 493 kts 62°
2026-05-04 02:23 40.44884 -98.14753 36865 ft 493 kts 62°
2026-05-04 02:23 40.47480 -98.06408 36866 ft 493 kts 62°
2026-05-04 02:24 40.50075 -97.98065 36864 ft 493 kts 61°
2026-05-04 02:24 40.52659 -97.89725 36862 ft 492 kts 61°
2026-05-04 02:25 40.55237 -97.81374 36860 ft 493 kts 62°
2026-05-04 02:25 40.57788 -97.73049 36857 ft 493 kts 62°
2026-05-04 02:26 40.60351 -97.64678 36856 ft 493 kts 62°
2026-05-04 02:26 40.62908 -97.56298 36855 ft 493 kts 62°
2026-05-04 02:27 40.65458 -97.47911 36857 ft 493 kts 62°
2026-05-04 02:27 40.67994 -97.39539 36854 ft 492 kts 62°
2026-05-04 02:28 40.70518 -97.31208 36856 ft 492 kts 62°
2026-05-04 02:28 40.73056 -97.22829 36854 ft 492 kts 62°
2026-05-04 02:29 40.75594 -97.14405 36854 ft 492 kts 62°
2026-05-04 02:29 40.78092 -97.06068 36857 ft 492 kts 62°
2026-05-04 02:30 40.80600 -96.97652 36860 ft 492 kts 62°
2026-05-04 02:30 40.83098 -96.89250 36862 ft 492 kts 62°
2026-05-04 02:31 40.85601 -96.80829 36862 ft 491 kts 62°
2026-05-04 02:31 40.88095 -96.72419 36863 ft 492 kts 62°
2026-05-04 02:32 40.90571 -96.64039 36866 ft 492 kts 62°
2026-05-04 02:32 40.93050 -96.55590 36867 ft 492 kts 62°
2026-05-04 02:33 40.95520 -96.47149 36866 ft 492 kts 62°
2026-05-04 02:33 40.97990 -96.38702 36862 ft 492 kts 62°
2026-05-04 02:34 41.00445 -96.30305 36860 ft 492 kts 62°
2026-05-04 02:34 41.02913 -96.21828 36861 ft 492 kts 62°
2026-05-04 02:35 41.05360 -96.13363 36862 ft 492 kts 63°
2026-05-04 02:35 41.07794 -96.04888 36862 ft 492 kts 63°
2026-05-04 02:36 41.10211 -95.96462 36861 ft 491 kts 63°
2026-05-04 02:36 41.12638 -95.87999 36862 ft 491 kts 63°
2026-05-04 02:37 41.15060 -95.79535 36863 ft 491 kts 63°
2026-05-04 02:37 41.17020 -95.70813 36855 ft 500 kts 76°
2026-05-04 02:38 41.17960 -95.61646 36853 ft 500 kts 77°
2026-05-04 02:38 41.18900 -95.52490 36857 ft 500 kts 77°
2026-05-04 02:39 41.19827 -95.43393 36856 ft 500 kts 77°
2026-05-04 02:39 41.20749 -95.34252 36854 ft 499 kts 77°
2026-05-04 02:40 41.21656 -95.25116 36853 ft 499 kts 77°
2026-05-04 02:40 41.22560 -95.15961 36854 ft 499 kts 77°
2026-05-04 02:41 41.23457 -95.06808 36861 ft 500 kts 78°
2026-05-04 02:41 41.24347 -94.97644 36865 ft 499 kts 78°
2026-05-04 02:42 41.25232 -94.88491 36866 ft 499 kts 77°
2026-05-04 02:42 41.25959 -94.80898 36867 ft 498 kts 78°
2026-05-04 02:43 41.26968 -94.70268 36873 ft 498 kts 78°
2026-05-04 02:43 41.27824 -94.61119 36876 ft 498 kts 78°
2026-05-04 02:44 41.28530 -94.53529 36870 ft 497 kts 78°
2026-05-04 02:44 41.29379 -94.44402 36875 ft 497 kts 78°
2026-05-04 02:45 41.30218 -94.35296 36877 ft 496 kts 78°
2026-05-04 02:45 41.31050 -94.26186 36875 ft 495 kts 78°
2026-05-04 02:46 41.31871 -94.17095 36876 ft 495 kts 78°
2026-05-04 02:46 41.32677 -94.07998 36872 ft 495 kts 78°
2026-05-04 02:47 41.33471 -93.98948 36868 ft 494 kts 78°
2026-05-04 02:47 41.34272 -93.89867 36868 ft 493 kts 78°
2026-05-04 02:48 41.35063 -93.80842 36867 ft 493 kts 78°
2026-05-04 02:48 41.35847 -93.71780 36862 ft 493 kts 79°
2026-05-04 02:49 41.36613 -93.62706 36856 ft 493 kts 79°
2026-05-04 02:49 41.37371 -93.53628 36854 ft 493 kts 79°
2026-05-04 02:50 41.38135 -93.44599 36851 ft 493 kts 79°
2026-05-04 02:50 41.38893 -93.35517 36851 ft 493 kts 79°
2026-05-04 02:51 41.39636 -93.26420 36852 ft 494 kts 79°
2026-05-04 02:51 41.40375 -93.17318 36853 ft 494 kts 79°
2026-05-04 02:52 41.41104 -93.08288 36854 ft 493 kts 79°
2026-05-04 02:52 41.41823 -92.99178 36858 ft 493 kts 79°
2026-05-04 02:53 41.42539 -92.90072 36866 ft 492 kts 79°
2026-05-04 02:53 41.43248 -92.80990 36385 ft 495 kts 79°
2026-05-04 02:54 41.43606 -92.76391 35398 ft 501 kts 79°
2026-05-04 02:54 41.43968 -92.71737 34366 ft 507 kts 79°
2026-05-04 02:54 41.44332 -92.67047 32931 ft 513 kts 79°
2026-05-04 02:54 41.44693 -92.62343 31477 ft 518 kts 79°
2026-05-04 02:55 41.45407 -92.52797 28670 ft 515 kts 80°
2026-05-04 02:55 41.45754 -92.48061 27044 ft 514 kts 81°
2026-05-04 02:55 41.46099 -92.43321 25569 ft 511 kts 81°
2026-05-04 02:56 41.46441 -92.38626 24065 ft 507 kts 81°
2026-05-04 02:56 41.46784 -92.33970 22671 ft 501 kts 81°
2026-05-04 02:56 41.47120 -92.29380 21365 ft 493 kts 81°
2026-05-04 02:56 41.47451 -92.24875 20139 ft 484 kts 81°
2026-05-04 02:57 41.47774 -92.20449 18971 ft 475 kts 81°
2026-05-04 02:57 41.48087 -92.16125 18220 ft 459 kts 81°
2026-05-04 02:57 41.48379 -92.11985 17740 ft 438 kts 81°
2026-05-04 02:57 41.48659 -92.07994 17202 ft 430 kts 81°
2026-05-04 02:58 41.48936 -92.04085 16610 ft 428 kts 81°
2026-05-04 02:58 41.49216 -92.00150 16038 ft 425 kts 81°
2026-05-04 02:58 41.49495 -91.96236 15446 ft 422 kts 82°
2026-05-04 02:58 41.49770 -91.92345 14838 ft 420 kts 82°
2026-05-04 02:59 41.50042 -91.88477 14211 ft 418 kts 82°
2026-05-04 02:59 41.50311 -91.84622 13543 ft 414 kts 82°
2026-05-04 02:59 41.50569 -91.80870 12899 ft 399 kts 82°
2026-05-04 02:59 41.50814 -91.77235 12241 ft 389 kts 82°
2026-05-04 03:00 41.51056 -91.73649 11556 ft 388 kts 82°
2026-05-04 03:00 41.51300 -91.70078 10931 ft 384 kts 83°
2026-05-04 03:00 41.51687 -91.66678 10779 ft 356 kts 71°
2026-05-04 03:00 41.52578 -91.63748 10650 ft 326 kts 57°
2026-05-04 03:01 41.53830 -91.61378 10406 ft 310 kts 44°
2026-05-04 03:01 41.55398 -91.59488 10157 ft 299 kts 31°
2026-05-04 03:01 41.57179 -91.58124 9943 ft 292 kts 19°
2026-05-04 03:01 41.59038 -91.57009 9819 ft 292 kts 20°
2026-05-04 03:02 41.60895 -91.55886 9693 ft 292 kts 20°
2026-05-04 03:02 41.62744 -91.54762 9566 ft 292 kts 20°
2026-05-04 03:02 41.64595 -91.53632 9429 ft 292 kts 20°
2026-05-04 03:02 41.66419 -91.52519 9093 ft 291 kts 20°
2026-05-04 03:03 41.68257 -91.51395 8709 ft 289 kts 20°
2026-05-04 03:03 41.70086 -91.50276 8324 ft 288 kts 20°
2026-05-04 03:03 41.71906 -91.49164 7929 ft 286 kts 20°
2026-05-04 03:03 41.73700 -91.48065 7528 ft 278 kts 20°
2026-05-04 03:04 41.75435 -91.47001 7159 ft 272 kts 20°
2026-05-04 03:04 41.77126 -91.45966 6792 ft 262 kts 20°
2026-05-04 03:04 41.78746 -91.44975 6442 ft 250 kts 19°
2026-05-04 03:04 41.80377 -91.44368 6103 ft 240 kts
2026-05-04 03:05 41.82032 -91.44308 5776 ft 237 kts 356°
2026-05-04 03:05 41.83667 -91.44274 5435 ft 231 kts 356°
2026-05-04 03:05 41.85243 -91.44234 5128 ft 222 kts 356°
2026-05-04 03:05 41.86731 -91.44299 4819 ft 211 kts 342°
2026-05-04 03:06 41.87852 -91.45368 4536 ft 198 kts 300°
2026-05-04 03:06 41.88137 -91.47118 4282 ft 193 kts 271°
2026-05-04 03:06 41.88117 -91.48890 3992 ft 187 kts 272°
2026-05-04 03:06 41.88140 -91.50610 3737 ft 182 kts 273°
2026-05-04 03:07 41.88169 -91.52283 3491 ft 177 kts 274°
2026-05-04 03:07 41.88196 -91.53903 3247 ft 167 kts 273°
2026-05-04 03:07 41.88219 -91.55406 3024 ft 155 kts 273°
2026-05-04 03:07 41.88239 -91.56761 2828 ft 141 kts 273°
2026-05-04 03:08 41.88259 -91.58035 2642 ft 134 kts 272°
2026-05-04 03:08 41.88278 -91.59273 2464 ft 132 kts 272°
2026-05-04 03:08 41.88298 -91.60495 2283 ft 130 kts 271°
2026-05-04 03:08 41.88315 -91.61704 2107 ft 130 kts 271°
2026-05-04 03:09 41.88333 -91.62928 1929 ft 132 kts 271°
2026-05-04 03:09 41.88351 -91.64158 1745 ft 132 kts 270°
2026-05-04 03:09 41.88368 -91.65387 1572 ft 132 kts 269°
2026-05-04 03:09 41.88382 -91.66616 1392 ft 132 kts 270°
2026-05-04 03:10 41.88397 -91.67848 1213 ft 132 kts 270°
2026-05-04 03:10 41.88412 -91.69074 1040 ft 131 kts 271°
2026-05-04 03:10 41.88440 -91.70301 878 ft 127 kts 270°
2026-05-04 03:10 41.88446 -91.71209 867 ft 56 kts 270°
2026-05-04 03:11 41.88454 -91.71459 863 ft 17 kts 285°
2026-05-04 03:11 41.88545 -91.71500 866 ft 16 kts
2026-05-04 03:11 41.88584 -91.71387 868 ft 15 kts 91°
2026-05-04 03:11 41.88584 -91.71247 870 ft 15 kts 90°
2026-05-04 03:12 41.88583 -91.71108 871 ft 15 kts 90°
2026-05-04 03:12 41.88582 -91.70969 872 ft 15 kts 91°
2026-05-04 03:12 41.88578 -91.70811 871 ft 19 kts 91°
2026-05-04 03:12 41.88575 -91.70633 871 ft 18 kts 91°
2026-05-04 03:13 41.88573 -91.70475 872 ft 16 kts 91°
2026-05-04 03:13 41.88573 -91.70340 872 ft 13 kts 90°
2026-05-04 03:13 41.88573 -91.70229 873 ft 11 kts 90°
2026-05-04 03:13 41.88608 -91.70151 874 ft 13 kts 12°
2026-05-04 03:14 41.88704 -91.70081 874 ft 17 kts 57°
2026-05-04 03:14 41.88737 -91.69947 875 ft 14 kts 43°
2026-05-04 03:14 41.88803 -91.69926 875 ft 10 kts 312°
2026-05-04 03:14 41.88825 -91.69958 874 ft 1 kts 314°
2026-05-04 03:15 41.88831 -91.69966 874 ft 0 kts 316°